Regional Weather Roundup
Issued by NWS Grand Forks, ND

Home | Current Version | Previous Version | Text Only | Print | Product List | Glossary Off
Versions: 1 2 3 4 5 6 7 8 9 10 11 12 13 14 15 16 17 18 19 20 21 22 23 24 25 26 27 28 29 30 31 32 33 34 35 36 37 38 39 40 41 42 43 44 45 46 47 48 49 50

000
ASUS43 KFGF 270710
RWRFGF
PRAIRIE TO PINES  WEATHER ROUNDUP
NATIONAL WEATHER SERVICE EASTERN NORTH DAKOTA/GRAND FORKS ND
200 AM CDT TUE JUN 27 2017

 **SATELLITE DATA USED TO AUGMENT SKY COVER AT AUTOMATED STATIONS**
 *****  WEATHER ACROSS EASTERN NORTH DAKOTA  *****

CITY           SKY/WX    TMP DP  RH WIND       PRES   REMARKS
GRAND FORKS    FAIR      50  43  77 S6        29.98F
GRAND FRKS AFB FAIR      50  40  70 S9        29.98F
DEVILS LAKE    FAIR      60  41  49 S13       29.98F
FARGO          FAIR      54  40  59 S10       30.03F
WAHPETON ARPT  FAIR      50  41  71 S7        30.06F
$$

 ***** WEATHER ACROSS CENTRAL AND WESTERN NORTH DAKOTA  *****

CITY           SKY/WX    TMP DP  RH WIND       PRES   REMARKS
BISMARCK       FAIR      62  39  42 S14       29.96F
MINOT          FAIR      64  40  41 S14       29.87F
JAMESTOWN      FAIR      53  39  59 S12       30.01F
MINOT AFB      FAIR      62  41  45 S13       29.85F
GARRISON         N/A     61  41  47 S14       29.90F
WILLISTON      FAIR      70  42  36 S13G18    29.80F
DICKINSON      FAIR      61  37  41 S23G32    29.87F
HETTINGER      FAIR      61  37  41 SE17G26   29.94F
$$

 *****  OTHER AIRPORT OBSERVATIONS IN OUR AREA  *****

CITY           SKY/WX    TMP DP  RH WIND       PRES   REMARKS
WALHALLA       NOT AVBL
GRAFTON AIRPOR FAIR      46  41  81 S9        29.98F
VALLEY CITY AR FAIR      46  45  93 S9        30.03F
CANDO          NOT AVBL
CAVALIER APRT  FAIR      50  45  81 S5        29.96F
GWINNER        CLOUDY    50  43  76 S9        30.05F
SHEYENNE NWR     N/A     49  42  76 S5        29.95S
ROLLA            N/A     48  45  87 S8        29.95F
 ***** THE ABOVE OBSERVATIONS ARE NON NWS ARE NOT QUALITY
       CONTROLLED AND MAY MIS-REPORT RAIN FOR SNOW...
$$

  *****  WEATHER ACROSS NORTHERN MINNESOTA  *****

CITY           SKY/WX    TMP DP  RH WIND       PRES   REMARKS
FLAG ISLAND    FAIR      59  45  58 SW5       29.97F
WARROAD        FAIR      52  46  82 S5        30.00F
ROSEAU         FAIR      48  43  81 S7        29.99F
HALLOCK        FAIR      45  41  87 SE8       29.97F
THF RVR FALLS  FAIR      49  42  77 S6        30.03F
BAUDETTE       FAIR      49  45  86 S3        30.00F
WASKISH        FAIR      48  46  93 CALM      30.03S
CROOKSTON      FAIR      48  43  81 SE8       30.02F
STEPHEN NDAWN    N/A     52  37  58 S5          N/A
GREENBUSH NDAW   N/A     50  45  81 S3          N/A
$$
  *****  WEATHER ACROSS CENTRAL AND WEST MINNESOTA  *****

CITY           SKY/WX    TMP DP  RH WIND       PRES   REMARKS
FOSSTON        FAIR      45  41  87 S7        30.05S
BEMIDJI        FAIR      49  44  82 CALM      30.05S
PARK RAPIDS    FAIR      51  40  65 CALM      30.06F
ELBOW LAKE     FAIR      50  43  77 S7        30.09S
WADENA         FAIR      46  41  81 CALM      30.07F
DETROIT LAKES  FAIR      52  46  82 S5        30.07F
MOORHEAD       FAIR      57  39  51 S7        30.05F
FERGUS FALLS   FAIR      54  45  71 S5        30.06S
MORRIS MN      FAIR      54  43  66 S5        30.09S
STAPLES        FAIR      46  41  81 CALM      30.08F
$$
  *****  WEATHER ELSEWHERE ACROSS MINNESOTA  *****

CITY           SKY/WX    TMP DP  RH WIND       PRES   REMARKS
DULUTH         FAIR      53  44  71 W9        30.03F
INTRNTL FALLS  FAIR      42  40  92 CALM      30.00F
ELY            FAIR      46  46 100 CALM      30.02F
CLOQUET        FAIR      52  41  66 W6        30.05S
WHEATON        FAIR      54  43  66 S8        30.10S
BRAINERD       FAIR      45  43  93 S3        30.08F
HIBBING        FAIR      40  40 100 CALM      30.04F
ALEXANDRIA     FAIR      52  41  66 SW7       30.10F
SAINT CLOUD    FAIR      46  45  96 CALM      30.09F
MINNEAPOLIS    FAIR      58  47  66 CALM      30.10F
$$

  *****  WEATHER ACROSS SOUTH DAKOTA  *****

CITY           SKY/WX    TMP DP  RH WIND       PRES   REMARKS
SIOUX FALLS    FAIR      49  46  90 CALM      30.12F
BROOKINGS      FAIR      50  42  74 SE5       30.12F
WATERTOWN      FAIR      51  41  68 S3        30.10F
HURON          FAIR      53  40  61 SE9       30.08F
SISSETON         N/A     51  42  71 S7        30.07F
ABERDEEN       FAIR      45  41  86 S10       30.06F
MITCHELL       FAIR      53  44  71 S9        30.09F
PIERRE         FAIR      56  40  55 SE10      30.02F
MOBRIDGE       FAIR      61  38  42 S16       29.98F
RAPID CITY     FAIR      56  40  55 SE12      29.97F
$$

  *****  SOME WEATHER IN NEARBY STATES *****

CITY           SKY/WX    TMP DP  RH WIND       PRES   REMARKS
GLASGOW MT     FAIR      73  40  30 E12       29.67F
GREAT FALLS MT MOCLDY    69  47  45 SW9       29.78R
CHEYENNE WY    FAIR      58  54  86 S15       30.14F
SCOTTSBLUFF NE FAIR      62  49  62 SE13      30.05F
OMAHA NE       FAIR      57  51  80 CALM      30.14F
DES MOINES IA  FAIR      57  45  64 SE3       30.15S
DAVENPORT IA   FAIR      51  47  86 W3        30.14S
CHICAGO IL     FAIR      56  46  69 W7        30.09F
EAU CLAIRE WI  FAIR      51  48  89 SW5       30.08F
LA CROSSE WI   FAIR      57  50  77 SE6       30.10F
$$

  *****  SOME NATIONAL WEATHER *****

CITY           SKY/WX    TMP DP  RH WIND       PRES   REMARKS
LA GUARDIA NY  NOT AVBL
RALEIGH NC     FAIR      64  58  80 CALM      30.02S
ATLANTA GA     MOCLDY    69  60  73 NW7       30.08F
NEW ORLEANS LA MOCLDY    76  74  93 CALM      30.03S
OKLAHOMA CITY  MOCLDY    68  61  78 S6        30.06F
ALBUQUERQUE NM MOCLDY    69  47  45 S6        30.23R
SALT LAKE CITY MOCLDY    84  37  18 SE14      29.81F
LOS ANGELES CA FAIR      68  57  68 SW6       29.88F
BOISE ID       FAIR      70  51  51 SW3       29.85R
SEATTLE WA     FAIR      56  50  80 SW10      30.01R
$$

*** WEATHER ACROSS MANITOBA...SASKATCHEWAN AND ONTARIO ***
                ***ONTARIO***

CITY           SKY/WX    TMP DP  RH WIND       PRES   REMARKS
GERALDTON      CLOUDY    50  48  93 SW3       29.91S
THUNDER BAY    CLEAR     46  46 100 SW5       29.96F
SIOUX LOOKOUT  PTCLDY    52  48  87 SW6       29.93F
TORONTO        PTCLDY    54  46  76 W3        29.89F
BIG TROUT LK   LGT RAIN  54  52  94 S7        29.76F
PICKLE LAKE    NOT AVBL
DRYDEN         CLEAR     52  46  82 SW7       29.95F
KENORA         CLEAR     57  46  67 W3        29.97
$$
                *** MANITOBA***

CITY           SKY/WX    TMP DP  RH WIND       PRES   REMARKS
BRANDON        PTCLDY    52  45  76 SE5       29.89F
DAUPHIN        PTCLDY    63  43  48 SW15G23   29.82F
ISLAND LAKE    PTCLDY    61  43  51 W9        29.76F
PILOT MOUND      N/A     46  43  87 S7          N/A
THE PAS        MOCLDY    52  45  76 SE3       29.76F
THOMPSON       CLEAR     55  45  67 NE7       29.74S
WINNIPEG       PTCLDY    50  43  76 S7        29.93F
LYNN LAKE      CLEAR     55  48  76 E7        29.77S
CHURCHILL      MOCLDY    39  37  93 NE16      29.86R
GILLAM         PTCLDY    50  46  87 N13       29.74S
$$
                ***SASKATCHEWAN***

CITY           SKY/WX    TMP DP  RH WIND       PRES   REMARKS
ESTEVAN        PTCLDY    61  45  55 SE13      29.79F
KINDERSLEY     CLEAR     63  50  63 S10       29.51F
LLOYDMINSTER   CLEAR     59  54  82 E7        29.49F
PRINCE ALBERT  CLOUDY    61  48  63 E10       29.64F
REGINA         PTCLDY    59  45  58 SE18G24   29.71F
YORKTON        MOCLDY    61  46  59 S13G18    29.76F
N. BATTLEFORD  CLEAR     63  50  63 E12G17    29.52F
LA RONGE       MOCLDY    63  45  51 SE9       29.67F
SASKATOON      PTCLDY    66  45  45 SE14      29.56F
SWIFT CURRENT  CLEAR     63  46  55 S13       29.61F
$$
NOTE: THESE ARE AUTOMATED STATIONS WITH LIMITED QUALITY CONTROL
      "FAIR" INDICATES FEW OR NO CLOUDS BELOW 12,000 FEET WITH NO
      SIGNIFICANT WEATHER AND/OR OBSTRUCTIONS TO VISIBILITY.
      SKY/WX - SKY CONDITION AND SIGNIFICANT WEATHER.
      TMP - AIR TEMPERATURE.    DP   - DEWPOINT TEMPERATURE.
      RH  - RELATIVE HUMIDITY.  PRES - PRESSURE.
      HX  - HEAT INDEX.         WCI  - WIND CHILL INDEX.
$



USA.gov is the U.S. government's official web portal to all federal, state and local government web resources and services.